Tracking 18942 objects as of 18-Jan-2018
HD Live streaming from Space Station
objects crossing your sky now

FENGYUN 1C DEB

Track FENGYUN 1C DEB now!
10-day predictions


NORAD ID: 37024
Int'l Code: 1999-025EDG
Perigee: 675.1 km
Apogee: 725.1 km
Inclination: 99.3 °
Period: 98.6 minutes
Semi major axis: 7071 km
RCS: 0.003 m2 (small)
Launch date: May 10, 1999
Source: People's Republic of China (PRC)
Launch site: Taiyaun Space Center, China (TSC)

Note: This is SATELLITE DEBRIS
aabbcc
Your satellite tracking list
Your tracking list is empty




NASA's NSSDC Master Catalog

Two Line Element Set (TLE):
1 37024U 99025EDG 18014.91190253 +.00002912 +00000-0 +61304-3 0  9996
2 37024 099.3381 044.9168 0035335 187.6263 172.4400 14.60055995207084
Source of the keplerian elements: AFSPC